STARLINK-32858, 62962

Orbit data source: Space-Track

STARLINK-32858, 62962 is a payload satellite owned by SpaceX/Seattle (US) in LEO that was launched on Tue, 11 Feb 2025 UTC via an FALCON 9 launch vehicle from the Air Force Western Test Range (AFWTR). Payload-class satellites include a variety of spacecraft equipped with specific instruments for various scientific and technological missions. These include communications satellites like Starlink; space stations such as the ISS; scientific satellites like the Hubble; Earth observation satellites from companies like Planet Labs, Umbra, and HawkEye 360; GPS; miniature CubeSats for education and research; and military/defense satellites.

Loading next visibility...
Identifier
62962, 2025-029Q
Orbit
LEO
Country
Flag of USUS
Related business
Manufacturer
SpaceX/Seattle
Mission
Operational Commercial Communications
Bus & Motor
STARLINK V2M, Unknown motor
Mass
730 kg wet, ~700 kg dry
Launch date (UTC)
2025-02-11 (1 year ago)
Launch vehicle
FALCON 9
Launch site
Air Force Western Test Range (AFWTR)
Object type
Payload
Rocket body
Debris
Shape & HBR
Box + 2 Pan, 17.7 m
Radar Cross Section
33.884 m², Large (>1 m²)

Expand to show TLE details & history
Last TLE update: 1 day ago

TLE from 1 day ago
0 STARLINK-32858
1 62962U 25029Q   26170.58909596  .00015952  00000-0  54987-3 0  9998
2 62962  53.1597 118.8051 0001414  82.3656 277.7505 15.30181049 76908
Epoch: 2026-06-19T14:08Z
TLE epoch observation values (Epoch: 2026-06-19T14:08:17.890Z)
Latitude
-0.00007°
Longitude
-1.0854°
Altitude
476.041 km
Speed
7.629 km/s
True Right ascension
07h 55m 13s
True Declination
0° 00' 00"
Sunlit
Object was in daylight at epoch
Visualization orbit readout
Latitude
Unknown
Longitude
Unknown
Altitude
Unknown
Speed
Unknown
Apparent Right ascension
Unknown
Apparent Declination
Unknown
Sunlit
N/A
Visualization observer readout
Local Sidereal Time
07:16:50
Azimuth
Unknown
Elevation
Unknown
Doppler factor
Unknown
Orbital elements
Apogee altitude
476.497 km
Perigee altitude
474.559 km
Semi-major axis
6,853.665 km
Eccentricity
0.00014
Inclination
53.1597°
RAAN
118.8051°
Arg. of periapsis
82.3656°
True anomaly
277.73444°
Mean anomaly
277.7505°
Eccentric anomaly
277.74247°
Mean motion
3.82524 °/min
Orbital period
94.11 mins
BSTAR
0.00054987
Loading maneuver chart data...
Computing Atmospheric mass density...
Loading historical data...
Loading historical data...
Loading historical data...
Loading historical data...
Loading historical data...
Loading historical data...
Loading historical data...

Documentation

Showing up to 5 results
|